Location: Unspecified
(40.7945°N, 0.0000°E)
Time: 06:23:56
(UTC+00:00)

A-11 Canister half - Visible Passes

Search period start: 28 January 2021 00:00
Search period end: 07 February 2021 00:00
Orbit: 1524 x 1684 km, 47.3° (Epoch: 27 January)

Date Brightness Start Highest point End Pass type
(mag) Time Alt. Az. Time Alt. Az. Time Alt. Az.
28 Jan 9.1 19:15:52 10° WNW 19:25:27 75° SSW 19:31:16 29° SE visible
28 Jan 10.4 21:21:58 10° WNW 21:29:28 26° SW 21:29:38 26° SW visible
29 Jan 9.1 18:54:12 10° WNW 19:03:47 78° SSW 19:11:37 18° SE visible
29 Jan 10.4 21:00:11 10° WNW 21:07:52 27° SW 21:10:00 25° SSW visible
30 Jan 9.1 18:32:33 10° WNW 18:42:07 81° SSW 18:52:01 10° SE visible
30 Jan 10.4 20:38:24 10° WNW 20:46:16 29° SW 20:50:32 21° SSW visible
31 Jan 9.1 18:10:54 10° WNW 18:20:28 83° SSW 18:30:20 10° SE visible
31 Jan 10.4 20:16:39 10° WNW 20:24:40 31° SW 20:31:18 15° S visible
01 Feb 9.2 17:49:15 10° WNW 17:58:47 86° SSW 18:08:39 10° ESE visible
01 Feb 10.4 19:54:54 10° WNW 20:03:03 32° SW 20:11:26 10° S visible
02 Feb 9.2 17:27:36 10° WNW 17:37:08 88° SSW 17:46:58 10° ESE visible
02 Feb 10.3 19:33:11 10° WNW 19:41:27 34° SW 19:49:58 10° SSE visible
03 Feb 10.3 19:11:27 10° WNW 19:19:51 36° SW 19:28:29 10° SSE visible
04 Feb 10.3 18:49:45 10° WNW 18:58:14 38° SW 19:06:59 10° SSE visible
05 Feb 10.3 18:28:02 10° WNW 18:36:37 40° SW 18:45:28 10° SSE visible
06 Feb 10.3 18:06:21 10° WNW 18:15:01 42° SW 18:23:57 10° SSE visible
